User: anonymous   Login
Location: College Park
(38.9810°N, 76.9370°W)
Time: 11:41:31
(UTC-04:00)
Language:

Hubble Space Telescope - Orbit

View from above orbital plane
View from above orbital plane
View from above satellite
View from above satellite

Ground track
Ground track

The orbit data is extracted from the following two-line orbital elements,

1 20580U 90037B   18202.23838073  .00000362  00000-0  11152-4 0  9996
2 20580  28.4685 250.0072 0002840 141.7931 282.9681 15.09067417350617
Epoch (UTC): 21 July 2018 05:43:16
Eccentricity: 0.0002840
inclination: 28.4685°
perigee height: 537 km
apogee height: 541 km
right ascension of ascending node: 250.0072°
argument of perigee: 141.7931°
revolutions per day: 15.09067417
mean anomaly at epoch: 282.9681°
orbit number at epoch: 35061

The dashed part of the orbit path shows where the satellite is in the earth's shadow,  

DLR